User: anonymous   Login
Location: Ford County Road and Bridge Department
(37.7686°N, 99.9762°W)
Time: 02:17:15
(UTC+00:00)
Language:

SKYMED 2 - Orbit

View from above orbital plane
View from above orbital plane
View from above satellite
View from above satellite

Ground track
Ground track

The orbit data is extracted from the following two-line orbital elements,

1 32376U 07059A   20091.13190198 -.00000172 +00000-0 -15015-4 0  9994
2 32376 097.8887 275.4308 0001434 088.9751 271.1614 14.82150669665976
Epoch (UTC): 31 March 2020 03:09:56
Eccentricity: 0.0001434
inclination: 97.8887°
perigee height: 621 km
apogee height: 623 km
right ascension of ascending node: 275.4308°
argument of perigee: 88.9751°
revolutions per day: 14.82150669
mean anomaly at epoch: 271.1614°
orbit number at epoch: 66597

The dashed part of the orbit path shows where the satellite is in the earth's shadow,  

DLR